Location: Grieser Field
(39.7333°N, 81.7975°W)
Time: 22:43:38
(UTC-04:00)

Hubble Space Telescope - Visible Passes

Search period start: 25 June 2016 00:00
Search period end: 05 July 2016 00:00
Orbit: 539 x 543 km, 28.5° (Epoch: 25 June)

Date Brightness Start Highest point End Pass type
(mag) Time Alt. Az. Time Alt. Az. Time Alt. Az.
01 Jul 2.9 22:54:11 10° SW 22:54:58 13° SSW 22:54:58 13° SSW visible
02 Jul 2.7 22:44:19 10° SW 22:46:02 16° SSW 22:46:02 16° SSW visible
03 Jul 2.5 22:34:31 10° SW 22:36:56 17° S 22:36:56 17° S visible
04 Jul 2.5 22:24:47 10° SW 22:27:26 17° S 22:27:45 16° S visible
